Location: Anare
(10.6236°N, 66.6506°W)
Time: 03:21:23
(UTC+00:00)

Delta 7925 Rocket - Visible Passes

Search period start: 25 July 2024 00:00
Search period end: 04 August 2024 00:00
Orbit: 645 x 1644 km, 26.3° (Epoch: 24 July)

Date Brightness Start Highest point End Pass type
(mag) Time Alt. Az. Time Alt. Az. Time Alt. Az.
25 Jul 5.8 00:49:34 10° W 00:59:23 48° NNW 01:07:54 14° NE visible
25 Jul 6.3 02:48:35 10° WNW 02:56:05 30° NNW 02:56:05 30° NNW visible
25 Jul 6.3 06:57:20 14° E 06:57:20 14° E 06:58:06 10° E visible
25 Jul 3.8 08:45:34 37° W 08:47:41 55° SSW 08:52:52 10° SE visible
26 Jul 5.8 00:12:40 10° W 00:22:24 52° NNW 00:32:16 10° NE visible
26 Jul 6.2 02:11:21 10° WNW 02:20:18 32° N 02:22:15 30° NNE visible
26 Jul 7.2 04:10:06 10° NW 04:10:24 11° NW 04:10:24 11° NW visible
26 Jul 4.1 08:12:36 55° SSE 08:12:36 55° SSE 08:17:06 10° SE visible
26 Jul 5.7 23:35:55 10° W 23:45:26 55° NNW 23:55:33 10° NE visible
27 Jul 6.2 01:34:14 10° WNW 01:43:19 34° N 01:48:15 23° NE visible
27 Jul 6.8 03:32:57 10° NW 03:36:24 20° NW 03:36:24 20° NW visible
27 Jul 5.7 07:39:35 21° SE 07:39:35 21° SE 07:41:17 10° ESE visible
27 Jul 5.1 09:27:49 15° WSW 09:30:12 18° SW 09:33:52 10° S visible
27 Jul 5.7 22:59:19 10° W 23:08:29 59° NNW 23:18:43 10° ENE visible
28 Jul 6.2 00:57:13 10° WNW 01:06:18 35° N 01:14:07 14° NE visible
28 Jul 6.4 02:55:48 10° NW 03:02:15 28° NNW 03:02:15 28° NNW visible
28 Jul 5.0 08:54:43 23° SSW 08:54:43 23° SSW 08:58:32 10° SSE visible
29 Jul 6.2 00:20:20 10° WNW 00:29:17 37° N 00:38:33 10° NE visible
29 Jul 6.2 02:18:45 10° WNW 02:27:36 32° N 02:28:01 31° N visible
29 Jul 5.6 08:21:31 17° SSE 08:21:31 17° SSE 08:23:02 10° SSE visible
29 Jul 6.2 23:43:34 10° WNW 23:52:17 38° NNW 00:01:41 10° NE visible
30 Jul 6.2 01:41:45 10° WNW 01:50:35 32° N 01:53:41 27° NNE visible
30 Jul 6.9 03:39:17 10° NW 03:41:49 18° NW 03:41:49 18° NW visible
30 Jul 6.2 23:06:56 10° WNW 23:15:20 39° NNW 23:24:46 10° NE visible
31 Jul 6.3 01:04:51 10° WNW 01:13:33 32° N 01:19:17 19° NE visible
31 Jul 6.4 03:02:19 10° NW 03:07:25 28° NNW 03:07:25 28° NNW visible
01 Aug 6.3 00:28:05 10° WNW 00:36:32 32° N 00:44:52 12° NE visible
01 Aug 6.1 02:25:25 10° NW 02:32:59 36° N 02:32:59 36° N visible
01 Aug 6.3 23:51:25 10° WNW 23:59:32 31° N 00:08:21 10° ENE visible
02 Aug 5.9 01:48:37 10° NW 01:57:50 37° N 01:58:31 37° NNE visible
02 Aug 7.0 03:45:16 10° WNW 03:46:38 15° NW 03:46:38 15° NW visible
02 Aug 6.3 23:14:53 10° WNW 23:22:34 31° N 23:31:14 10° NE visible
03 Aug 6.0 01:11:54 10° NW 01:20:48 35° N 01:24:02 30° NE visible
03 Aug 6.6 03:08:23 10° WNW 03:12:09 25° NW 03:12:09 25° NW visible
